| time (UTC) | temp F | wind direction | speed MPH | gust MPH | rain 1hr in | rain 24hr in | rain mn in | humidity % | barometer mb |
| 20260507010520 | 59 | 209 | 2.0 | 4.0 | 0.00 | 0.11 | 0.11 | 98 | 1005.2 |
| 20260507010017 | 59 | 127 | 2.0 | 6.0 | 0.00 | 0.11 | 0.11 | 98 | 1005.2 |
| 20260507005515 | 59 | 170 | 1.0 | 5.0 | 0.00 | 0.11 | 0.11 | 98 | 1005.0 |
| 20260507005011 | 59 | 265 | 2.0 | 8.0 | 0.00 | 0.11 | 0.11 | 98 | 1005.2 |
| 20260507004508 | 59 | 193 | 5.0 | 7.0 | 0.00 | 0.11 | 0.11 | 98 | 1005.2 |
| 20260507004005 | 59 | 211 | 2.0 | 7.0 | 0.00 | 0.11 | 0.11 | 98 | 1005.1 |
| 20260507003500 | 59 | 164 | 2.0 | 5.0 | 0.00 | 0.11 | 0.11 | 98 | 1005.3 |
| 20260507002955 | 59 | 194 | 2.0 | 6.0 | 0.00 | 0.11 | 0.11 | 98 | 1005.0 |
| 20260507002452 | 59 | 154 | 1.0 | 9.0 | 0.00 | 0.11 | 0.11 | 98 | 1005.2 |
| 20260507001949 | 59 | 242 | 0.0 | 9.0 | 0.00 | 0.11 | 0.11 | 99 | 1005.1 |
| 20260507001446 | 59 | 215 | 5.0 | 5.0 | 0.00 | 0.11 | 0.11 | 99 | 1005.0 |
| 20260507000943 | 59 | 220 | 2.0 | 5.0 | 0.00 | 0.11 | 0.11 | 99 | 1005.0 |
| 20260507000439 | 59 | 176 | 2.0 | 8.0 | 0.00 | 0.11 | 0.11 | 99 | 1005.0 |
| 20260506235935 | 59 | 249 | 3.0 | 6.0 | 0.00 | 0.11 | 0.11 | 99 | 1004.6 |
| 20260506235433 | 59 | 206 | 2.0 | 5.0 | 0.00 | 0.11 | 0.11 | 99 | 1004.7 |
| 20260506234932 | 59 | 235 | 6.0 | 7.0 | 0.00 | 0.11 | 0.11 | 99 | 1004.6 |
| 20260506234431 | 59 | 152 | 2.0 | 4.0 | 0.00 | 0.11 | 0.11 | 99 | 1004.7 |
| 20260506233928 | 59 | 233 | 3.0 | 7.0 | 0.00 | 0.11 | 0.11 | 99 | 1004.9 |
| 20260506233425 | 59 | 266 | 3.0 | 9.0 | 0.00 | 0.11 | 0.11 | 99 | 1004.9 |
| 20260506232921 | 59 | 198 | 5.0 | 11.0 | 0.00 | 0.11 | 0.11 | 99 | 1004.8 |
| 20260506232418 | 59 | 135 | 0.0 | 4.0 | 0.02 | 0.11 | 0.11 | 99 | 1004.7 |
| 20260506231913 | 59 | 193 | 0.0 | 3.0 | 0.05 | 0.11 | 0.11 | 99 | 1004.9 |
| 20260506231411 | 59 | 237 | 3.0 | 6.0 | 0.05 | 0.10 | 0.10 | 99 | 1004.8 |
| 20260506230908 | 59 | 182 | 3.0 | 6.0 | 0.12 | 0.10 | 0.10 | 99 | 1004.9 |
| 20260506230405 | 59 | 183 | 2.0 | 3.0 | 0.14 | 0.09 | 0.09 | 99 | 1004.9 |
| 20260506225901 | 59 | 107 | 0.0 | 5.0 | 0.05 | 0.08 | 0.08 | 99 | 1004.9 |
| 20260506225359 | 59 | 119 | 0.0 | 5.0 | 0.02 | 0.07 | 0.07 | 99 | 1004.8 |
| 20260506224855 | 59 | 200 | 1.0 | 4.0 | 0.00 | 0.07 | 0.07 | 99 | 1005.0 |
| 20260506224353 | 59 | 171 | 1.0 | 6.0 | 0.00 | 0.07 | 0.07 | 98 | 1004.8 |
| 20260506223849 | 59 | 164 | 1.0 | 6.0 | 0.00 | 0.07 | 0.07 | 98 | 1005.0 |
| 20260506223344 | 59 | 211 | 3.0 | 8.0 | 0.00 | 0.07 | 0.07 | 98 | 1005.0 |
| 20260506222842 | 59 | 224 | 7.0 | 8.0 | 0.00 | 0.07 | 0.07 | 98 | 1004.9 |
| 20260506222337 | 59 | 143 | 0.0 | 6.0 | 0.00 | 0.07 | 0.07 | 97 | 1004.9 |
| 20260506221835 | 60 | 222 | 3.0 | 6.0 | 0.00 | 0.07 | 0.07 | 97 | 1004.8 |
| 20260506221332 | 60 | 220 | 2.0 | 5.0 | 0.00 | 0.07 | 0.07 | 97 | 1005.0 |
| 20260506220830 | 60 | 233 | 1.0 | 5.0 | 0.00 | 0.07 | 0.07 | 97 | 1005.3 |
| 20260506220325 | 60 | 225 | 8.0 | 11.0 | 0.02 | 0.07 | 0.07 | 97 | 1005.4 |
| 20260506215822 | 60 | 194 | 2.0 | 7.0 | 0.02 | 0.07 | 0.07 | 97 | 1005.2 |
| 20260506215318 | 60 | 266 | 3.0 | 5.0 | 0.00 | 0.06 | 0.06 | 96 | 1005.2 |
| 20260506214814 | 60 | 131 | 2.0 | 12.0 | 0.00 | 0.06 | 0.06 | 96 | 1005.2 |
| 20260506214311 | 60 | 98 | 1.0 | 3.0 | 0.00 | 0.06 | 0.06 | 96 | 1005.3 |
| 20260506213809 | 60 | 155 | 2.0 | 3.0 | 0.00 | 0.06 | 0.06 | 95 | 1005.6 |
| 20260506213306 | 60 | 256 | 0.0 | 4.0 | 0.00 | 0.06 | 0.06 | 95 | 1005.5 |
| 20260506212804 | 60 | 89 | 4.0 | 5.0 | 0.00 | 0.06 | 0.06 | 95 | 1005.5 |
| 20260506212259 | 60 | 206 | 4.0 | 9.0 | 0.00 | 0.06 | 0.06 | 95 | 1005.6 |
| 20260506211754 | 60 | 234 | 2.0 | 6.0 | 0.00 | 0.06 | 0.06 | 96 | 1005.5 |
| 20260506211251 | 60 | 201 | 4.0 | 8.0 | 0.00 | 0.06 | 0.06 | 96 | 1005.6 |
| 20260506210748 | 60 | 205 | 2.0 | 4.0 | 0.00 | 0.06 | 0.06 | 96 | 1005.7 |
| 20260506210245 | 60 | 258 | 4.0 | 7.0 | 0.00 | 0.06 | 0.06 | 96 | 1005.5 |
| 20260506205742 | 60 | 200 | 2.0 | 6.0 | 0.00 | 0.06 | 0.06 | 96 | 1005.5 |
| 20260506205237 | 60 | 193 | 3.0 | 5.0 | 0.02 | 0.06 | 0.06 | 95 | 1005.9 |
| 20260506204734 | 60 | 186 | 1.0 | 5.0 | 0.02 | 0.06 | 0.06 | 95 | 1005.9 |
| 20260506204232 | 60 | 196 | 5.0 | 8.0 | 0.00 | 0.06 | 0.06 | 95 | 1005.6 |
| 20260506203730 | 60 | 84 | 2.0 | 8.0 | 0.00 | 0.06 | 0.06 | 95 | 1005.8 |
| 20260506203227 | 60 | 25 | 3.0 | 6.0 | 0.00 | 0.06 | 0.06 | 95 | 1005.8 |
| 20260506202725 | 60 | 242 | 3.0 | 9.0 | 0.02 | 0.06 | 0.06 | 95 | 1005.8 |
| 20260506202221 | 60 | 204 | 7.0 | 10.0 | 0.02 | 0.06 | 0.06 | 95 | 1005.9 |
| 20260506201718 | 60 | 140 | 2.0 | 7.0 | 0.00 | 0.06 | 0.06 | 96 | 1005.8 |
| 20260506201214 | 60 | 204 | 2.0 | 10.0 | 0.02 | 0.06 | 0.06 | 96 | 1005.9 |
| 20260506200711 | 60 | 242 | 4.0 | 5.0 | 0.00 | 0.05 | 0.05 | 96 | 1005.9 |
| 20260506200208 | 60 | 196 | 2.0 | 9.0 | 0.02 | 0.05 | 0.05 | 95 | 1005.8 |
| 20260506195704 | 60 | 246 | 6.0 | 10.0 | 0.02 | 0.05 | 0.05 | 95 | 1005.9 |
| 20260506195201 | 60 | 217 | 0.0 | 8.0 | 0.00 | 0.05 | 0.05 | 95 | 1005.7 |
| 20260506194658 | 60 | 252 | 6.0 | 11.0 | 0.02 | 0.05 | 0.05 | 94 | 1005.8 |
| 20260506194154 | 61 | 62 | 2.0 | 6.0 | 0.05 | 0.05 | 0.05 | 95 | 1006.0 |
| 20260506193652 | 61 | 259 | 5.0 | 7.0 | 0.07 | 0.04 | 0.04 | 93 | 1006.0 |
| 20260506193149 | 62 | 2 | 2.0 | 10.0 | 0.05 | 0.04 | 0.04 | 93 | 1005.9 |
| 20260506192646 | 62 | 137 | 1.0 | 8.0 | 0.05 | 0.03 | 0.03 | 92 | 1005.9 |
| 20260506192142 | 62 | 215 | 5.0 | 7.0 | 0.05 | 0.03 | 0.03 | 90 | 1005.9 |
| 20260506191639 | 63 | 259 | 1.0 | 4.0 | 0.05 | 0.02 | 0.02 | 90 | 1005.9 |
| 20260506191135 | 63 | 230 | 3.0 | 7.0 | 0.05 | 0.02 | 0.02 | 88 | 1005.9 |
| 20260506190632 | 64 | 228 | 3.0 | 5.0 | 0.02 | 0.02 | 0.02 | 87 | 1005.9 |
| 20260506190129 | 64 | 230 | 0.0 | 2.0 | 0.02 | 0.01 | 0.01 | 86 | 1005.9 |
| 20260506185626 | 64 | 288 | 0.0 | 6.0 | 0.05 | 0.01 | 0.01 | 85 | 1006.1 |
| 20260506185122 | 65 | 232 | 5.0 | 7.0 | 0.05 | 0.01 | 0.01 | 82 | 1006.1 |
| 20260506184620 | 66 | 242 | 12.0 | 14.0 | 0.02 | 0.00 | 0.00 | 78 | 1006.1 |
| 20260506184117 | 67 | 89 | 3.0 | 9.0 | 0.00 | 0.00 | 0.00 | 76 | 1006.3 |
| 20260506183614 | 67 | 241 | 4.0 | 6.0 | 0.00 | 0.00 | 0.00 | 75 | 1006.4 |
| 20260506183109 | 67 | 205 | 7.0 | 9.0 | 0.00 | 0.00 | 0.00 | 74 | 1006.3 |
| 20260506182608 | 67 | 190 | 2.0 | 13.0 | 0.00 | 0.00 | 0.00 | 73 | 1006.3 |
| 20260506182104 | 68 | 181 | 5.0 | 14.0 | 0.00 | 0.00 | 0.00 | 72 | 1006.2 |
| 20260506181602 | 69 | 226 | 6.0 | 13.0 | 0.00 | 0.00 | 0.00 | 68 | 1006.3 |
| 20260506181059 | 69 | 282 | 9.0 | 15.0 | 0.00 | 0.00 | 0.00 | 67 | 1006.4 |
| 20260506180555 | 71 | 278 | 3.0 | 4.0 | 0.00 | 0.00 | 0.00 | 62 | 1006.0 |
| 20260506180052 | 71 | 274 | 4.0 | 5.0 | 0.00 | 0.00 | 0.00 | 62 | 1006.1 |
| 20260506175548 | 71 | 206 | 5.0 | 15.0 | 0.00 | 0.00 | 0.00 | 61 | 1006.3 |
| 20260506175045 | 71 | 290 | 3.0 | 5.0 | 0.00 | 0.00 | 0.00 | 60 | 1006.2 |
| 20260506174544 | 71 | 205 | 2.0 | 13.0 | 0.00 | 0.00 | 0.00 | 60 | 1006.2 |
| 20260506174039 | 71 | 180 | 6.0 | 20.0 | 0.00 | 0.00 | 0.00 | 60 | 1006.4 |
| 20260506173537 | 72 | 258 | 3.0 | 13.0 | 0.00 | 0.00 | 0.00 | 60 | 1006.2 |
| 20260506173034 | 72 | 255 | 9.0 | 15.0 | 0.00 | 0.00 | 0.00 | 59 | 1006.2 |
| 20260506172531 | 72 | 176 | 5.0 | 10.0 | 0.00 | 0.00 | 0.00 | 59 | 1006.1 |
| 20260506172027 | 72 | 217 | 9.0 | 15.0 | 0.00 | 0.00 | 0.00 | 58 | 1006.5 |
| 20260506171525 | 73 | 237 | 3.0 | 10.0 | 0.00 | 0.00 | 0.00 | 59 | 1006.5 |
| 20260506171022 | 73 | 250 | 4.0 | 13.0 | 0.00 | 0.00 | 0.00 | 59 | 1006.4 |
| 20260506170520 | 73 | 294 | 4.0 | 15.0 | 0.00 | 0.00 | 0.00 | 58 | 1006.3 |
| 20260506170012 | 73 | 201 | 8.0 | 13.0 | 0.00 | 0.00 | 0.00 | 57 | 1006.3 |
| 20260506165510 | 73 | 217 | 3.0 | 10.0 | 0.00 | 0.00 | 0.00 | 57 | 1006.4 |
| 20260506165006 | 73 | 213 | 4.0 | 5.0 | 0.00 | 0.00 | 0.00 | 59 | 1006.6 |
| 20260506164503 | 72 | 226 | 5.0 | 17.0 | 0.00 | 0.00 | 0.00 | 59 | 1006.4 |
| 20260506164001 | 72 | 209 | 4.0 | 11.0 | 0.00 | 0.00 | 0.00 | 60 | 1006.7 |
| 20260506163456 | 72 | 252 | 8.0 | 9.0 | 0.00 | 0.00 | 0.00 | 61 | 1006.8 |
| 20260506162950 | 71 | 244 | 7.0 | 12.0 | 0.00 | 0.00 | 0.00 | 61 | 1006.9 |
| 20260506162448 | 71 | 251 | 5.0 | 5.0 | 0.00 | 0.00 | 0.00 | 62 | 1006.7 |
| 20260506161945 | 71 | 266 | 2.0 | 5.0 | 0.00 | 0.00 | 0.00 | 63 | 1007.0 |
| 20260506161443 | 71 | 220 | 4.0 | 8.0 | 0.00 | 0.00 | 0.00 | 62 | 1007.1 |
| 20260506160940 | 71 | 257 | 3.0 | 6.0 | 0.00 | 0.00 | 0.00 | 63 | 1007.2 |
| 20260506160437 | 71 | 221 | 4.0 | 11.0 | 0.00 | 0.00 | 0.00 | 63 | 1007.3 |
| 20260506155934 | 71 | 229 | 3.0 | 8.0 | 0.00 | 0.00 | 0.00 | 63 | 1007.4 |
| 20260506155432 | 70 | 254 | 8.0 | 9.0 | 0.00 | 0.00 | 0.00 | 63 | 1007.5 |
| 20260506153554 | 70 | 202 | 4.0 | 13.0 | 0.00 | 0.00 | 0.00 | 64 | 1007.8 |
| 20260506153052 | 71 | 201 | 4.0 | 14.0 | 0.00 | 0.00 | 0.00 | 63 | 1007.9 |
| 20260506152548 | 71 | 165 | 2.0 | 8.0 | 0.00 | 0.00 | 0.00 | 63 | 1007.9 |
| 20260506152046 | 71 | 198 | 8.0 | 10.0 | 0.00 | 0.00 | 0.00 | 62 | 1007.9 |
| 20260506151544 | 71 | 209 | 3.0 | 10.0 | 0.00 | 0.00 | 0.00 | 63 | 1008.1 |
| 20260506151041 | 71 | 156 | 2.0 | 6.0 | 0.00 | 0.00 | 0.00 | 64 | 1007.9 |
| 20260506150537 | 71 | 264 | 2.0 | 11.0 | 0.00 | 0.00 | 0.00 | 66 | 1007.9 |
| 20260506150034 | 71 | 212 | 5.0 | 5.0 | 0.00 | 0.00 | 0.00 | 64 | 1007.9 |
| 20260506145530 | 70 | 247 | 4.0 | 6.0 | 0.00 | 0.00 | 0.00 | 65 | 1007.8 |
| 20260506145023 | 70 | 231 | 8.0 | 9.0 | 0.00 | 0.00 | 0.00 | 66 | 1008.1 |
| 20260506144519 | 69 | 222 | 6.0 | 13.0 | 0.00 | 0.00 | 0.00 | 66 | 1008.3 |
| 20260506144017 | 70 | 227 | 3.0 | 13.0 | 0.00 | 0.00 | 0.00 | 68 | 1008.1 |
| 20260506143514 | 70 | 241 | 5.0 | 5.0 | 0.00 | 0.00 | 0.00 | 68 | 1008.1 |
| 20260506143013 | 70 | 257 | 5.0 | 5.0 | 0.00 | 0.00 | 0.00 | 68 | 1008.1 |
| 20260506142510 | 69 | 230 | 4.0 | 11.0 | 0.00 | 0.00 | 0.00 | 69 | 1008.3 |
| 20260506142008 | 69 | 225 | 8.0 | 10.0 | 0.00 | 0.00 | 0.00 | 69 | 1008.1 |
| 20260506141506 | 69 | 175 | 5.0 | 18.0 | 0.00 | 0.00 | 0.00 | 69 | 1007.9 |
| 20260506141004 | 69 | 171 | 2.0 | 6.0 | 0.00 | 0.00 | 0.00 | 69 | 1008.0 |
| 20260506140501 | 69 | 140 | 0.0 | 18.0 | 0.00 | 0.00 | 0.00 | 69 | 1008.0 |
| 20260506135957 | 68 | 273 | 4.0 | 14.0 | 0.00 | 0.00 | 0.00 | 70 | 1008.1 |
| 20260506135455 | 68 | 216 | 5.0 | 8.0 | 0.00 | 0.00 | 0.00 | 72 | 1008.4 |
| 20260506134951 | 67 | 269 | 3.0 | 17.0 | 0.00 | 0.00 | 0.00 | 73 | 1008.1 |
| 20260506134447 | 68 | 223 | 9.0 | 17.0 | 0.00 | 0.00 | 0.00 | 71 | 1008.3 |
| 20260506133944 | 68 | 224 | 7.0 | 11.0 | 0.00 | 0.00 | 0.00 | 72 | 1008.3 |
| 20260506133441 | 67 | 190 | 10.0 | 10.0 | 0.00 | 0.00 | 0.00 | 73 | 1008.3 |
| 20260506132938 | 67 | 243 | 6.0 | 7.0 | 0.00 | 0.00 | 0.00 | 74 | 1008.6 |
| 20260506132435 | 67 | 219 | 4.0 | 9.0 | 0.00 | 0.00 | 0.00 | 74 | 1008.6 |
| 20260506131932 | 66 | 219 | 3.0 | 5.0 | 0.00 | 0.00 | 0.00 | 75 | 1008.6 |
| 20260506131428 | 66 | 265 | 3.0 | 6.0 | 0.00 | 0.00 | 0.00 | 75 | 1008.7 |
| 20260506130925 | 66 | 128 | 3.0 | 3.0 | 0.00 | 0.00 | 0.00 | 76 | 1008.7 |
| 20260506130422 | 65 | 210 | 6.0 | 10.0 | 0.00 | 0.00 | 0.00 | 76 | 1008.8 |
| 20260506125920 | 66 | 194 | 9.0 | 9.0 | 0.00 | 0.00 | 0.00 | 76 | 1008.6 |
| 20260506125418 | 65 | 219 | 6.0 | 10.0 | 0.00 | 0.00 | 0.00 | 76 | 1008.4 |
| 20260506124916 | 65 | 244 | 5.0 | 15.0 | 0.00 | 0.00 | 0.00 | 76 | 1008.8 |
| 20260506124413 | 65 | 212 | 3.0 | 13.0 | 0.00 | 0.00 | 0.00 | 76 | 1008.6 |
| 20260506123911 | 65 | 113 | 2.0 | 12.0 | 0.00 | 0.00 | 0.00 | 77 | 1008.6 |
| 20260506123409 | 65 | 341 | 0.0 | 10.0 | 0.00 | 0.00 | 0.00 | 77 | 1008.7 |
| 20260506122906 | 64 | 208 | 6.0 | 10.0 | 0.00 | 0.00 | 0.00 | 77 | 1009.0 |
| 20260506122402 | 65 | 295 | 2.0 | 8.0 | 0.00 | 0.00 | 0.00 | 78 | 1009.0 |
| 20260506121901 | 64 | 199 | 7.0 | 9.0 | 0.00 | 0.00 | 0.00 | 78 | 1008.6 |
| 20260506121357 | 64 | 184 | 2.0 | 5.0 | 0.00 | 0.00 | 0.00 | 79 | 1008.9 |
| 20260506120854 | 64 | 180 | 2.0 | 3.0 | 0.00 | 0.00 | 0.00 | 78 | 1008.9 |
| 20260506120352 | 65 | 229 | 5.0 | 6.0 | 0.00 | 0.00 | 0.00 | 77 | 1008.8 |
| 20260506115849 | 65 | 160 | 2.0 | 7.0 | 0.00 | 0.00 | 0.00 | 78 | 1008.7 |
| 20260506115347 | 64 | 110 | 0.0 | 4.0 | 0.00 | 0.00 | 0.00 | 79 | 1008.9 |
| 20260506114845 | 63 | 245 | 2.0 | 2.0 | 0.00 | 0.00 | 0.00 | 81 | 1009.1 |
| 20260506114342 | 62 | 214 | 3.0 | 9.0 | 0.00 | 0.00 | 0.00 | 81 | 1008.9 |
| 20260506113841 | 62 | 131 | 2.0 | 9.0 | 0.00 | 0.00 | 0.00 | 82 | 1009.1 |
| 20260506113338 | 61 | 215 | 5.0 | 7.0 | 0.00 | 0.00 | 0.00 | 82 | 1009.1 |
| 20260506112835 | 62 | 243 | 4.0 | 6.0 | 0.00 | 0.00 | 0.00 | 82 | 1009.4 |
| 20260506112332 | 62 | 262 | 0.0 | 5.0 | 0.00 | 0.00 | 0.00 | 82 | 1009.2 |
| 20260506111829 | 62 | 226 | 2.0 | 6.0 | 0.00 | 0.00 | 0.00 | 82 | 1009.4 |
| 20260506111328 | 61 | 261 | 1.0 | 4.0 | 0.00 | 0.00 | 0.00 | 83 | 1009.1 |
| 20260506110825 | 61 | 172 | 2.0 | 4.0 | 0.00 | 0.00 | 0.00 | 83 | 1009.0 |
| 20260506110322 | 62 | 181 | 2.0 | 5.0 | 0.00 | 0.00 | 0.00 | 82 | 1009.2 |
| 20260506105819 | 62 | 191 | 2.0 | 7.0 | 0.00 | 0.00 | 0.00 | 82 | 1009.3 |
| 20260506105315 | 61 | 171 | 2.0 | 5.0 | 0.00 | 0.00 | 0.00 | 82 | 1009.1 |
| 20260506104812 | 61 | 240 | 5.0 | 12.0 | 0.00 | 0.00 | 0.00 | 83 | 1009.1 |
| 20260506104310 | 60 | 217 | 8.0 | 11.0 | 0.00 | 0.00 | 0.00 | 84 | 1009.0 |
| 20260506103807 | 60 | 192 | 2.0 | 5.0 | 0.00 | 0.00 | 0.00 | 85 | 1009.0 |
| 20260506103305 | 59 | 258 | 3.0 | 4.0 | 0.00 | 0.00 | 0.00 | 85 | 1008.9 |
| 20260506102802 | 59 | 125 | 1.0 | 4.0 | 0.00 | 0.00 | 0.00 | 85 | 1009.0 |
| 20260506102300 | 59 | 71 | 1.0 | 4.0 | 0.00 | 0.00 | 0.00 | 85 | 1009.3 |
| 20260506101757 | 59 | 255 | 2.0 | 7.0 | 0.00 | 0.00 | 0.00 | 85 | 1009.2 |
| 20260506101253 | 60 | 188 | 1.0 | 3.0 | 0.00 | 0.00 | 0.00 | 85 | 1009.1 |
| 20260506100751 | 60 | 154 | 2.0 | 4.0 | 0.00 | 0.00 | 0.00 | 85 | 1008.8 |
| 20260506100249 | 59 | 211 | 2.0 | 7.0 | 0.00 | 0.00 | 0.00 | 85 | 1008.9 |
| 20260506095748 | 59 | 183 | 3.0 | 5.0 | 0.00 | 0.00 | 0.00 | 85 | 1009.1 |
| 20260506095244 | 59 | 121 | 2.0 | 5.0 | 0.00 | 0.00 | 0.00 | 85 | 1008.9 |
| 20260506094740 | 59 | 209 | 2.0 | 5.0 | 0.00 | 0.00 | 0.00 | 85 | 1008.8 |
| 20260506094239 | 59 | 140 | 5.0 | 5.0 | 0.00 | 0.00 | 0.00 | 85 | 1009.0 |
| 20260506093737 | 59 | 65 | 1.0 | 6.0 | 0.00 | 0.00 | 0.00 | 85 | 1008.7 |
| 20260506093234 | 59 | 180 | 1.0 | 3.0 | 0.00 | 0.00 | 0.00 | 85 | 1009.1 |
| 20260506092732 | 59 | 192 | 2.0 | 4.0 | 0.00 | 0.00 | 0.00 | 84 | 1008.8 |
| 20260506092230 | 59 | 121 | 3.0 | 6.0 | 0.00 | 0.00 | 0.00 | 84 | 1008.9 |
| 20260506091727 | 59 | 228 | 3.0 | 5.0 | 0.00 | 0.00 | 0.00 | 84 | 1009.0 |
| 20260506091224 | 60 | 118 | 2.0 | 5.0 | 0.00 | 0.00 | 0.00 | 84 | 1009.0 |
| 20260506090722 | 60 | 260 | 4.0 | 8.0 | 0.00 | 0.00 | 0.00 | 83 | 1008.8 |
| 20260506090218 | 59 | 200 | 3.0 | 5.0 | 0.00 | 0.00 | 0.00 | 84 | 1008.9 |
| 20260506085715 | 60 | 188 | 1.0 | 3.0 | 0.00 | 0.00 | 0.00 | 83 | 1008.8 |
| 20260506085212 | 60 | 169 | 3.0 | 5.0 | 0.00 | 0.00 | 0.00 | 83 | 1009.0 |
| 20260506084708 | 60 | 243 | 4.0 | 6.0 | 0.00 | 0.00 | 0.00 | 83 | 1009.1 |
| 20260506084204 | 60 | 183 | 1.0 | 3.0 | 0.00 | 0.00 | 0.00 | 82 | 1009.2 |
| 20260506083702 | 60 | 251 | 3.0 | 7.0 | 0.00 | 0.00 | 0.00 | 82 | 1009.1 |
| 20260506083159 | 60 | 211 | 3.0 | 10.0 | 0.00 | 0.00 | 0.00 | 81 | 1009.0 |
| 20260506082656 | 60 | 277 | 0.0 | 4.0 | 0.00 | 0.00 | 0.00 | 81 | 1009.0 |
| 20260506082156 | 60 | 247 | 5.0 | 10.0 | 0.00 | 0.00 | 0.00 | 81 | 1009.1 |
| 20260506081655 | 60 | 234 | 4.0 | 5.0 | 0.00 | 0.00 | 0.00 | 81 | 1008.9 |
| 20260506081152 | 60 | 288 | 1.0 | 5.0 | 0.00 | 0.00 | 0.00 | 81 | 1008.9 |
| 20260506080650 | 61 | 175 | 6.0 | 6.0 | 0.00 | 0.00 | 0.00 | 80 | 1008.9 |
| 20260506080146 | 61 | 198 | 3.0 | 11.0 | 0.00 | 0.00 | 0.00 | 80 | 1008.9 |
| 20260506073130 | 61 | 244 | 2.0 | 5.0 | 0.00 | 0.00 | 0.00 | 78 | 1009.0 |
| 20260506072627 | 61 | 199 | 2.0 | 4.0 | 0.00 | 0.00 | 0.00 | 78 | 1009.0 |
| 20260506072125 | 62 | 217 | 4.0 | 4.0 | 0.00 | 0.00 | 0.00 | 78 | 1008.8 |
| 20260506071622 | 62 | 263 | 2.0 | 9.0 | 0.00 | 0.00 | 0.00 | 77 | 1008.7 |
| 20260506071120 | 62 | 237 | 4.0 | 8.0 | 0.00 | 0.00 | 0.00 | 77 | 1008.8 |
| 20260506070616 | 62 | 195 | 1.0 | 5.0 | 0.00 | 0.00 | 0.00 | 77 | 1008.6 |
| 20260506070114 | 62 | 159 | 3.0 | 16.0 | 0.00 | 0.00 | 0.00 | 76 | 1008.8 |
| 20260506062051 | 63 | 204 | 5.0 | 7.0 | 0.00 | 0.00 | 0.00 | 73 | 1008.4 |
| 20260506061546 | 64 | 160 | 2.0 | 12.0 | 0.00 | 0.00 | 0.00 | 72 | 1008.6 |
| 20260506061044 | 64 | 272 | 3.0 | 9.0 | 0.00 | 0.00 | 0.00 | 72 | 1008.6 |
| 20260506060543 | 63 | 283 | 4.0 | 5.0 | 0.00 | 0.00 | 0.00 | 72 | 1008.5 |
| 20260506051011 | 64 | 214 | 6.0 | 6.0 | 0.00 | 0.00 | 0.00 | 69 | 1008.9 |
| 20260506050509 | 64 | 91 | 2.0 | 4.0 | 0.00 | 0.00 | 0.00 | 69 | 1008.8 |
| 20260506044959 | 64 | 183 | 1.0 | 9.0 | 0.00 | 0.00 | 0.00 | 69 | 1008.8 |
| 20260506044458 | 63 | 129 | 4.0 | 4.0 | 0.00 | 0.00 | 0.00 | 69 | 1008.8 |
| 20260506043954 | 63 | 283 | 2.0 | 5.0 | 0.00 | 0.00 | 0.00 | 69 | 1009.0 |
| 20260506043451 | 63 | 139 | 0.0 | 4.0 | 0.00 | 0.00 | 0.00 | 69 | 1008.9 |
| 20260506042949 | 63 | 133 | 2.0 | 6.0 | 0.00 | 0.00 | 0.00 | 68 | 1008.9 |
| 20260506042448 | 63 | 191 | 2.0 | 3.0 | 0.00 | 0.00 | 0.00 | 69 | 1009.2 |
| 20260506041946 | 63 | 216 | 2.0 | 4.0 | 0.00 | 0.00 | 0.00 | 69 | 1009.1 |
| 20260506041443 | 63 | 127 | 2.0 | 4.0 | 0.00 | 0.00 | 0.00 | 69 | 1009.0 |
| 20260506040940 | 63 | 213 | 1.0 | 2.0 | 0.00 | 0.00 | 0.00 | 69 | 1009.0 |
| 20260506040438 | 63 | 232 | 2.0 | 5.0 | 0.00 | 0.00 | 0.00 | 68 | 1009.3 |
| 20260506035934 | 63 | 228 | 3.0 | 6.0 | 0.00 | 0.00 | 0.00 | 68 | 1009.1 |
| 20260506035431 | 64 | 233 | 3.0 | 12.0 | 0.00 | 0.00 | 0.00 | 68 | 1009.1 |
| 20260506034928 | 63 | 220 | 2.0 | 6.0 | 0.00 | 0.00 | 0.00 | 68 | 1009.0 |
| 20260506034425 | 63 | 253 | 3.0 | 5.0 | 0.00 | 0.00 | 0.00 | 68 | 1008.8 |
| 20260506033922 | 63 | 218 | 3.0 | 4.0 | 0.00 | 0.00 | 0.00 | 68 | 1009.0 |
| 20260506033419 | 63 | 204 | 4.0 | 4.0 | 0.00 | 0.00 | 0.00 | 68 | 1009.0 |
| 20260506032916 | 63 | 204 | 2.0 | 3.0 | 0.00 | 0.00 | 0.00 | 68 | 1008.9 |
| 20260506032413 | 63 | 214 | 2.0 | 7.0 | 0.00 | 0.00 | 0.00 | 68 | 1009.1 |
| 20260506031910 | 63 | 110 | 1.0 | 4.0 | 0.00 | 0.00 | 0.00 | 68 | 1009.0 |
| 20260506031407 | 63 | 226 | 5.0 | 6.0 | 0.00 | 0.00 | 0.00 | 67 | 1008.8 |
| 20260506030905 | 63 | 236 | 2.0 | 5.0 | 0.00 | 0.00 | 0.00 | 67 | 1009.0 |
| 20260506030403 | 63 | 210 | 3.0 | 3.0 | 0.00 | 0.00 | 0.00 | 67 | 1008.9 |
| 20260506025859 | 64 | 179 | 1.0 | 5.0 | 0.00 | 0.00 | 0.00 | 67 | 1009.0 |
| 20260506025356 | 64 | 241 | 4.0 | 5.0 | 0.00 | 0.00 | 0.00 | 66 | 1009.0 |
| 20260506024853 | 64 | 212 | 4.0 | 8.0 | 0.00 | 0.00 | 0.00 | 66 | 1009.0 |
| 20260506024350 | 64 | 205 | 3.0 | 6.0 | 0.00 | 0.00 | 0.00 | 65 | 1009.0 |
| 20260506023846 | 64 | 198 | 4.0 | 14.0 | 0.00 | 0.00 | 0.00 | 65 | 1008.9 |
| 20260506023343 | 64 | 241 | 4.0 | 11.0 | 0.00 | 0.00 | 0.00 | 64 | 1009.0 |
| 20260506022839 | 64 | 258 | 6.0 | 6.0 | 0.00 | 0.00 | 0.00 | 64 | 1008.9 |
| 20260506022337 | 64 | 206 | 3.0 | 7.0 | 0.00 | 0.00 | 0.00 | 64 | 1008.8 |
| 20260506021835 | 64 | 310 | 1.0 | 7.0 | 0.00 | 0.00 | 0.00 | 64 | 1009.0 |
| 20260506021332 | 64 | 198 | 11.0 | 11.0 | 0.00 | 0.00 | 0.00 | 63 | 1008.8 |
| 20260506020828 | 65 | 206 | 3.0 | 7.0 | 0.00 | 0.00 | 0.00 | 63 | 1008.9 |
| 20260506020326 | 65 | 269 | 5.0 | 12.0 | 0.00 | 0.00 | 0.00 | 62 | 1008.8 |
| 20260506015824 | 65 | 182 | 0.0 | 8.0 | 0.00 | 0.00 | 0.00 | 62 | 1008.8 |
| 20260506015321 | 65 | 162 | 3.0 | 9.0 | 0.00 | 0.00 | 0.00 | 62 | 1008.8 |
| 20260506014817 | 65 | 202 | 6.0 | 10.0 | 0.00 | 0.00 | 0.00 | 62 | 1008.8 |
| 20260506014314 | 66 | 179 | 0.0 | 10.0 | 0.00 | 0.00 | 0.00 | 61 | 1008.7 |
| 20260506013811 | 66 | 264 | 2.0 | 9.0 | 0.00 | 0.00 | 0.00 | 61 | 1008.6 |
| 20260506013308 | 66 | 317 | 2.0 | 7.0 | 0.00 | 0.00 | 0.00 | 61 | 1008.4 |
| 20260506012805 | 66 | 242 | 4.0 | 12.0 | 0.00 | 0.00 | 0.00 | 60 | 1008.6 |
| 20260506012307 | 66 | 265 | 2.0 | 9.0 | 0.00 | 0.00 | 0.00 | 60 | 1008.3 |
| 20260506011759 | 67 | 206 | 3.0 | 10.0 | 0.00 | 0.00 | 0.00 | 60 | 1008.4 |
| 20260506011255 | 67 | 242 | 4.0 | 6.0 | 0.00 | 0.00 | 0.00 | 60 | 1008.3 |